Location: Bogis-Bossey
(46.3500°N, 6.1667°E)
Time: 18:42:41
(UTC+00:00)

Cosmos 1375 Rocket - Pass Details

Date: 17 August 2022
Orbit: 952 x 1015 km, 65.8° (Epoch: 30 September)

Event Time Altitude Azimuth Distance (km) Brightness Sun altitude
Exits shadow 23:36:12 87° 320° (NW) 1,022 4.5 -30.5°
Drops below altitude 10° 23:42:48 10° 35° (NE) 2,807 7.5 -30.5°
Sets 23:45:25 0° 36° (NE) 3,760 8.3 -30.5°
